Torna al catalogo

COSMOS 839 DEB

AttivoUNKNOWN
NORAD 14919·DEBRIS·🇷🇺 Russia

Lanciato Jul 8, 1976 da Plesetsk Cosmodrome

Loading…

Prossimi Passaggi (prossime 24 ore)

TLE

AggiornatoSource: Space-Track

Epoca: Sep 14, 2026, 01:47 UTC

1 14919U 76067BG  26257.07497767 -.00000037  00000-0  61680-4 0  9995
2 14919  65.8052 171.3619 0716823  60.5796 319.7095 12.30402597645484

Traccia COSMOS 839 DEB in tempo reale con AllMySat

Download on the App Store